• In Uzbekistan
  • List of Countries
  • For 7 days
  • Water Temperature
  • Satellite Maps
  • Weather Map
  • Weather Widgets
  • user-avatar
    Login

    Hourly Weather Sidi Bu-l-Abbas

    Today, 26 April, Wednesday

    Time Temperature Precipitation Wind Pressure Humidity
    00:00 +15°C° 0 mm 1 mps 715 mmHg 87%
    01:00 +15°C° 0 mm 1 mps 715 mmHg 87%
    02:00 +14°C° 0 mm 1 mps 715 mmHg 88%
    03:00 +14°C° 0 mm 1 mps 714 mmHg 88%
    04:00 +15°C° 0 mm 1 mps 714 mmHg 87%
    05:00 +15°C° 0 mm 1 mps 715 mmHg 85%
    06:00 +18°C° 0 mm 1 mps 715 mmHg 78%
    07:00 +20°C° 0 mm 1 mps 715 mmHg 69%
    08:00 +21°C° 0 mm 2 mps 715 mmHg 60%
    09:00 +24°C° 0 mm 2 mps 716 mmHg 51%
    10:00 +25°C° 0 mm 3 mps 716 mmHg 46%
    11:00 +26°C° 0 mm 3 mps 715 mmHg 42%
    12:00 +28°C° 0 mm 4 mps 715 mmHg 38%
    13:00 +27°C° 0.1 mm 4 mps 715 mmHg 38%
    14:00 +27°C° 0.1 mm 5 mps 714 mmHg 39%
    15:00 +27°C° 0.1 mm 5 mps 714 mmHg 40%
    16:00 +25°C° 0.2 mm 4 mps 714 mmHg 47%
    17:00 +22°C° 0.2 mm 4 mps 713 mmHg 55%
    18:00 +20°C° 0.2 mm 3 mps 713 mmHg 62%
    19:00 +18°C° 0.2 mm 3 mps 714 mmHg 68%
    20:00 +17°C° 0.2 mm 2 mps 714 mmHg 73%
    21:00 +16°C° 0.2 mm 2 mps 715 mmHg 79%
    22:00 +16°C° 0.1 mm 2 mps 715 mmHg 79%
    23:00 +15°C° 0.1 mm 2 mps 715 mmHg 79%

    Tomorrow, 27 April, Thursday

    Time Temperature Precipitation Wind Pressure Humidity
    00:00 +15°C° 0.1 mm 2 mps 716 mmHg 80%
    01:00 +15°C° 0 mm 2 mps 715 mmHg 78%
    02:00 +16°C° 0 mm 2 mps 715 mmHg 76%
    03:00 +16°C° 0 mm 2 mps 715 mmHg 75%
    04:00 +16°C° 0 mm 2 mps 715 mmHg 74%
    05:00 +15°C° 0 mm 1 mps 715 mmHg 74%
    06:00 +15°C° 0 mm 1 mps 715 mmHg 74%
    07:00 +17°C° 0 mm 2 mps 716 mmHg 64%
    08:00 +20°C° 0 mm 2 mps 716 mmHg 54%
    09:00 +22°C° 0 mm 3 mps 717 mmHg 45%
    10:00 +24°C° 0 mm 3 mps 717 mmHg 42%
    11:00 +25°C° 0 mm 3 mps 717 mmHg 40%
    12:00 +25°C° 0 mm 4 mps 717 mmHg 38%
    13:00 +25°C° 0 mm 4 mps 717 mmHg 38%
    14:00 +25°C° 0 mm 4 mps 716 mmHg 39%
    15:00 +25°C° 0 mm 4 mps 716 mmHg 39%
    16:00 +23°C° 0 mm 4 mps 716 mmHg 43%
    17:00 +21°C° 0 mm 3 mps 716 mmHg 48%
    18:00 +20°C° 0 mm 3 mps 716 mmHg 52%
    19:00 +18°C° 0 mm 2 mps 717 mmHg 61%
    20:00 +16°C° 0 mm 1 mps 717 mmHg 70%
    21:00 +14°C° 0 mm 1 mps 717 mmHg 79%
    22:00 +14°C° 0 mm 1 mps 717 mmHg 80%
    23:00 +13°C° 0 mm 1 mps 717 mmHg 81%

    Day after tomorrow, 28 April, Friday

    Time Temperature Precipitation Wind Pressure Humidity
    00:00 +13°C° 0 mm 1 mps 717 mmHg 83%
    01:00 +13°C° 0 mm 1 mps 717 mmHg 82%
    02:00 +14°C° 0 mm 1 mps 717 mmHg 82%
    03:00 +14°C° 0 mm 1 mps 716 mmHg 82%
    04:00 +14°C° 0 mm 1 mps 716 mmHg 82%
    05:00 +14°C° 0 mm 1 mps 716 mmHg 82%
    06:00 +14°C° 0 mm 2 mps 716 mmHg 83%
    07:00 +16°C° 0 mm 2 mps 716 mmHg 74%
    08:00 +18°C° 0 mm 2 mps 717 mmHg 65%
    09:00 +20°C° 0 mm 3 mps 717 mmHg 57%
    10:00 +21°C° 0.1 mm 3 mps 717 mmHg 53%
    11:00 +24°C° 0.1 mm 3 mps 717 mmHg 50%
    12:00 +25°C° 0.1 mm 4 mps 717 mmHg 46%
    13:00 +25°C° 0.2 mm 4 mps 716 mmHg 48%
    14:00 +25°C° 0.2 mm 4 mps 716 mmHg 49%
    15:00 +23°C° 0.2 mm 5 mps 715 mmHg 51%
    16:00 +22°C° 0.1 mm 4 mps 715 mmHg 58%
    17:00 +20°C° 0.1 mm 4 mps 715 mmHg 65%
    18:00 +19°C° 0.1 mm 4 mps 715 mmHg 72%
    19:00 +18°C° 0.1 mm 3 mps 716 mmHg 77%
    20:00 +17°C° 0.1 mm 2 mps 716 mmHg 82%
    21:00 +16°C° 0.1 mm 1 mps 717 mmHg 87%
    22:00 +16°C° 0.1 mm 1 mps 717 mmHg 88%
    23:00 +15°C° 0.1 mm 1 mps 717 mmHg 89%

    29 April, Saturday

    Time Temperature Precipitation Wind Pressure Humidity
    00:00 +15°C° 0.1 mm 1 mps 717 mmHg 91%
    01:00 +14°C° 0.1 mm 1 mps 717 mmHg 92%
    02:00 +14°C° 0.1 mm 1 mps 716 mmHg 92%
    03:00 +14°C° 0.1 mm 1 mps 716 mmHg 93%
    04:00 +14°C° 0 mm 1 mps 716 mmHg 93%
    05:00 +14°C° 0 mm 1 mps 716 mmHg 93%
    06:00 +14°C° 0 mm 1 mps 716 mmHg 93%
    07:00 +16°C° 0 mm 1 mps 717 mmHg 82%
    08:00 +19°C° 0 mm 1 mps 717 mmHg 71%
    09:00 +21°C° 0 mm 1 mps 718 mmHg 60%
    10:00 +23°C° 0 mm 2 mps 718 mmHg 54%
    11:00 +24°C° 0 mm 3 mps 718 mmHg 48%
    12:00 +25°C° 0 mm 4 mps 718 mmHg 43%
    13:00 +25°C° 0.1 mm 4 mps 717 mmHg 44%
    14:00 +25°C° 0.1 mm 4 mps 717 mmHg 45%
    15:00 +25°C° 0.1 mm 4 mps 717 mmHg 46%
    16:00 +24°C° 0 mm 3 mps 717 mmHg 50%
    17:00 +22°C° 0 mm 3 mps 717 mmHg 54%
    18:00 +21°C° 0 mm 3 mps 717 mmHg 58%
    19:00 +19°C° 0 mm 2 mps 717 mmHg 65%
    20:00 +19°C° 0 mm 1 mps 717 mmHg 72%
    21:00 +16°C° 0 mm 1 mps 718 mmHg 79%
    22:00 +16°C° 0 mm 1 mps 717 mmHg 82%
    23:00 +14°C° 0 mm 0 mps 717 mmHg 84%

    30 April, Sunday

    Time Temperature Precipitation Wind Pressure Humidity
    00:00 +13°C° 0 mm 0 mps 717 mmHg 87%
    01:00 +13°C° 0 mm 0 mps 717 mmHg 88%
    02:00 +12°C° 0 mm 0 mps 716 mmHg 89%
    03:00 +12°C° 0 mm 0 mps 716 mmHg 90%
    04:00 +12°C° 0 mm 0 mps 716 mmHg 88%
    05:00 +13°C° 0 mm 0 mps 717 mmHg 86%
    06:00 +14°C° 0 mm 0 mps 717 mmHg 84%
    07:00 +18°C° 0 mm 1 mps 717 mmHg 72%
    08:00 +21°C° 0 mm 1 mps 718 mmHg 60%
    09:00 +23°C° 0 mm 1 mps 718 mmHg 48%
    10:00 +24°C° 0 mm 2 mps 718 mmHg 45%
    11:00 +25°C° 0 mm 3 mps 718 mmHg 42%
    12:00 +26°C° 0 mm 4 mps 718 mmHg 39%
    13:00 +26°C° 0.1 mm 4 mps 718 mmHg 40%
    14:00 +26°C° 0.1 mm 4 mps 718 mmHg 42%
    15:00 +25°C° 0.1 mm 4 mps 717 mmHg 43%
    16:00 +23°C° 0 mm 4 mps 718 mmHg 49%
    17:00 +21°C° 0 mm 4 mps 718 mmHg 54%
    18:00 +20°C° 0 mm 4 mps 718 mmHg 59%
    19:00 +18°C° 0 mm 3 mps 718 mmHg 67%
    20:00 +17°C° 0 mm 3 mps 719 mmHg 75%
    21:00 +15°C° 0 mm 2 mps 719 mmHg 84%
    22:00 +14°C° 0 mm 2 mps 719 mmHg 85%
    23:00 +14°C° 0 mm 2 mps 719 mmHg 86%

    1 May, Monday

    Time Temperature Precipitation Wind Pressure Humidity
    00:00 +14°C° 0 mm 2 mps 719 mmHg 87%
    01:00 +13°C° 0 mm 2 mps 719 mmHg 87%
    02:00 +13°C° 0 mm 2 mps 719 mmHg 87%
    03:00 +13°C° 0 mm 2 mps 719 mmHg 87%
    04:00 +13°C° 0 mm 2 mps 719 mmHg 86%
    05:00 +14°C° 0 mm 2 mps 720 mmHg 86%
    06:00 +14°C° 0 mm 2 mps 720 mmHg 85%
    07:00 +16°C° 0 mm 3 mps 721 mmHg 76%
    08:00 +17°C° 0 mm 3 mps 721 mmHg 68%
    09:00 +19°C° 0 mm 4 mps 722 mmHg 59%
    10:00 +20°C° 0 mm 4 mps 722 mmHg 53%
    11:00 +21°C° 0 mm 4 mps 722 mmHg 47%
    12:00 +22°C° 0 mm 4 mps 722 mmHg 41%
    13:00 +22°C° 0 mm 4 mps 721 mmHg 42%
    14:00 +22°C° 0 mm 4 mps 721 mmHg 42%
    15:00 +22°C° 0 mm 4 mps 721 mmHg 43%
    16:00 +21°C° 0 mm 4 mps 721 mmHg 47%
    17:00 +19°C° 0 mm 3 mps 721 mmHg 51%
    18:00 +18°C° 0 mm 3 mps 721 mmHg 56%
    19:00 +16°C° 0 mm 2 mps 721 mmHg 63%
    20:00 +15°C° 0 mm 1 mps 721 mmHg 70%
    21:00 +13°C° 0 mm 1 mps 722 mmHg 77%
    22:00 +12°C° 0 mm 1 mps 721 mmHg 78%
    23:00 +12°C° 0 mm 1 mps 721 mmHg 79%
    Show more